Other Public Products
Issued by NWS Grand Forks, ND

Home | Current Version | Previous Version | Text Only | Print | Product List | Glossary Off
Versions: 1 2 3 4 5 6 7 8 9 10 11 12 13 14 15 16 17 18 19 20 21 22 23 24 25 26 27 28 29 30 31 32 33 34 35 36 37 38 39 40 41 42 43 44 45 46 47 48 49 50

000
FPUS83 KFGF 110110
OPUFGF
PRAIRIE TO PINES WEATHER ROUNDUP
NATIONAL WEATHER SERVICE EASTERN NORTH DAKOTA/GRAND FORKS ND
700 PM CST SAT DEC 10 2016

 **SATELLITE DATA USED TO AUGMENT SKY COVER AT AUTOMATED STATIONS**
 *****  WEATHER ACROSS EASTERN NORTH DAKOTA  *****

CITY           SKY/WX    TMP DP  RH WIND       PRES   REMARKS
GRAND FORKS    CLOUDY    -3  -9  75 NE6       30.27F WCI -15
GRAND FORKS AF CLOUDY    -4 -10  78 E3        30.27R
GRAND CITY NWS NOT AVBL
BUXTON         NOT AVBL
DEVILS LAKE    CLOUDY    -5  -9  83 E14       30.16F WCI -25
FARGO          CLOUDY     2  -5  72 NE9       30.22F WCI -13
WAHPETON ARPT  CLOUDY     5   0  78 E7        30.20S WCI  -7
$$

 *****  WEATHER ACROSS CENTRAL AND WESTERN NORTH DAKOTA  *****

CITY           SKY/WX    TMP DP  RH WIND       PRES   REMARKS
JAMESTOWN      CLOUDY    -1  -6  79 E16       30.10F WCI -21
BISMARCK       CLOUDY    -2  -6  83 E13       30.05S WCI -20
MINOT          CLOUDY    -5 -10  79 E12       30.08S WCI -23
MINOT AFB      CLOUDY    -7 -12  79 E13       30.08F WCI -27
GARRISON         N/A     -2  -8  76 E15       30.01F WCI -22
WILLISTON      LGT SNOW   3  -4  72 SE14G22   29.94F WCI -15
DICKINSON      FLURRIES  -4  -9  79 E18       29.84F WCI -26
HETTINGER      CLOUDY    -2  -6  83 E14       29.86F WCI -21
$$

 *****  OTHER OBSERVATIONS NORTHEAST NORTH DAKOTA  *****

CITY           SKY/WX    TMP DP  RH WIND       PRES   REMARKS
WALHALLA         N/A     -9  -9 100 E3        30.28F
LANGDON        FAIR     -11 -15  84 E9        30.16F WCI -29
CAVALIER         N/A     -8 -11  84 E5        30.28F WCI -19
GRAFTON        FAIR      -8 -11  84 NE5       30.31S WCI -19
CANDO          CLOUDY    -4  -8  84 SE13      30.17F WCI -23
FORT TOTTEN      N/A     -4  -8  81 SE6       29.95S WCI -16
ROLLA          FAIR     -11 -15  84 SE5       30.12F WCI -23
RUGBY            N/A     -4  -8  84 SE13      30.13S WCI -23
 ***** THE ABOVE OBSERVATIONS ARE NON NWS ARE NOT QUALITY
        CONTROLLED AND MAY MIS-REPORT RAIN FOR SNOW...
$$

 *****  OTHER OBSERVATIONS SOUTHEAST NORTH DAKOTA *****

CITY           SKY/WX    TMP DP  RH WIND       PRES   REMARKS
COOPERSTOWN    CLOUDY    -2  -8  78 E14       30.16F HAZE    WCI -21
VALLEY CITY    CLOUDY    -2  -4  92 E10       30.16F WCI -19
OAKES          NOT AVBL
GWINNER        CLOUDY     3   0  85 E16       30.14F WCI -16
SHEYENNE NWR     N/A      1  -6  71 E8        29.95S WCI -13
BUFFALO        NOT AVBL
WYNDMERE       NOT AVBL
 ***** THE ABOVE OBSERVATIONS ARE NON NWS ARE NOT QUALITY
       CONTROLLED AND MAY MIS-REPORT RAIN FOR SNOW...
$$

  *****  WEATHER ACROSS NORTHERN MINNESOTA  *****

CITY           SKY/WX    TMP DP  RH WIND       PRES   REMARKS
FLAG ISLAND    CLEAR      0  -4  85 CALM      30.27F
WARROAD        CLOUDY    -8 -11  84 CALM      30.27F
ROSEAU         CLOUDY   -13 -18  77 NE3       30.27F
HALLOCK        CLOUDY    -9 -15  77 CALM      30.29S
THF RVR FALLS  CLOUDY    -6 -10  83 NE6       30.25F WCI -19
HALSTAD        NOT AVBL
FOSSTON        CLOUDY    -6  -9  84 E3        30.21F
BAUDETTE       CLOUDY    -3  -8  79 NE5       30.25F WCI -13
WASKISH        CLOUDY    -2  -6  84 CALM      30.24F
CROOKSTON      CLOUDY    -2  -8  78 E5        30.27F WCI -12
$$
  *****  WEATHER ACROSS CENTRAL AND WEST MINNESOTA  *****

CITY           SKY/WX    TMP DP  RH WIND       PRES   REMARKS
BEMIDJI        CLOUDY    -1  -6  79 SE6       30.20F WCI -13
PARK RAPIDS    CLOUDY     2  -5  72 E5        30.18F WCI  -8
WADENA         FLURRIES   1  -2  85 E7        30.17F WCI -11
DETROIT LAKES  CLOUDY     3  -4  72 SE6       30.17F WCI  -8
MOORHEAD       CLOUDY     1  -6  71 NE7       30.22F WCI -11
FERGUS FALLS   CLOUDY     5  -2  72 E8        30.24S WCI  -8
ELBOW LAKE     LGT SNOW   6   2  85 SE9       30.17F WCI  -8
MORRIS MN      LGT SNOW   9   5  85 E12       30.14F WCI  -6
STAPLES        NOT AVBL
WHEATON        LGT SNOW   9   5  85 E8        30.20R WCI  -4
$$
  *****  WEATHER ELSEWHERE ACROSS MINNESOTA  *****

CITY           SKY/WX    TMP DP  RH WIND       PRES   REMARKS
DULUTH         CLOUDY     1  -4  79 N5        30.23F WCI  -9
INTRNTL FALLS  CLOUDY   -12 -18  74 CALM      30.26F
ELY            CLEAR     -9 -13  84 CALM      30.24F
CLOQUET        MOCLDY     1  -2  85 CALM      30.24S
BRAINERD       CLOUDY     6  -2  69 NE6       30.21F WCI  -4
HIBBING        CLOUDY   -11 -15  82 CALM      30.24F
ALEXANDRIA     LGT SNOW   7   2  80 E12       30.16F WCI  -8
SAINT CLOUD    LGT SNOW   9   5  84 E7        30.22F FOG     WCI  -2
MINNEAPOLIS    LGT SNOW  12   7  80 SE8       30.24F WCI   0
$$

  *****  WEATHER ACROSS SOUTH DAKOTA  *****

CITY           SKY/WX    TMP DP  RH WIND       PRES   REMARKS
SIOUX FALLS    LGT SNOW  17  15  92 E13       30.02F FOG     WCI   4
BROOKINGS      LGT SNOW   9   5  84 E14       30.02F FOG     WCI  -7
WATERTOWN      LGT SNOW   5   1  83 E12G21    30.01F VSB 1   WCI -11
HURON          CLOUDY    13  10  88 E14       30.00F WCI  -2
SISSETON         N/A      4   0  83 E6        30.14F WCI  -7
ABERDEEN       LGT SNOW   6  -1  73 E13       30.07F WCI -10
MITCHELL       CLOUDY    19  16  88 SE15      29.98F WCI   5
PIERRE         CLOUDY     9   6  88 NE15      29.90R WCI  -8
MOBRIDGE       LGT SNOW   5  -3  69 E14       29.95F WCI -12
RAPID CITY     CLOUDY     5   1  83 E8        29.73R WCI  -8
$$

  *****  SOME WEATHER IN NEARBY STATES *****

CITY           SKY/WX    TMP DP  RH WIND       PRES   REMARKS
GLASGOW MT     LGT SNOW   2  -3  80 E14       29.86F VSB 3/4 WCI -16
GREAT FALLS MT CLOUDY    -1  -4  87 SE5       29.75R WCI -11
CHEYENNE WY    CLOUDY    44  28  53 W21G31    29.72S
SCOTTSBLUFF NE CLOUDY    27  20  75 SE6       29.67F WCI  20
OMAHA NE       CLOUDY    31  17  56 SE16      30.02F WCI  20
DES MOINES IA  CLOUDY    25  18  74 E10G22    30.12F WCI  15
DAVENPORT IA   FLURRIES  22  19  89 SE13      30.28F WCI  10
CHICAGO IL     LGT SNOW  21  19  92 S5        30.37F VSB 1   WCI  15
EAU CLAIRE WI  LGT SNOW  13   8  81 E6        30.27F WCI   4
LA CROSSE WI   LGT SNOW  16  12  84 E6        30.30F FOG     WCI   7
$$

  *****  SOME NATIONAL WEATHER *****

CITY           SKY/WX    TMP DP  RH WIND       PRES   REMARKS
LA GUARDIA NY  PTCLDY    35  20  54 NW13      30.44R
RALEIGH NC     PTCLDY    30  16  56 CALM      30.51R
ATLANTA GA     PTCLDY    41  20  43 SE3       30.42S
NEW ORLEANS LA CLEAR     44  33  65 E7        30.39F
OKLAHOMA CITY  CLOUDY    41  31  67 S20G26    30.00F
ALBUQUERQUE NM CLOUDY    43  28  55 SE3       30.04F
SALT LAKE CITY RAIN      40  37  89 N20       29.88S
LOS ANGELES CA MOCLDY    59  57  93 W7        30.09F FOG
BOISE ID       FOG       32  32 100 W7        29.90R VSB 1/4
SEATTLE WA     LGT RAIN  41  38  89 S12       29.84R
$$

*** WEATHER ACROSS MANITOBA...SASKATCHEWAN AND ONTARIO ***
                ***ONTARIO***

CITY           SKY/WX    TMP DP  RH WIND       PRES   REMARKS
GERALDTON      FLURRIES   1  -2  85 CALM      30.26S
THUNDER BAY    PTCLDY     1  -2  85 W2        30.34F
SIOUX LOOKOUT  CRYSTALS -15 -20  76 N2        30.26F
TORONTO        PTCLDY    23  16  74 SW12      30.35S WCI  12
BIG TROUT LK   CLEAR     -8 -11  84 W6        30.27F WCI -21
PICKLE LAKE    FLURRIES  -8 -11  84 VRB2      30.25S
DRYDEN         CLEAR     -6  -9  84 S3        30.25S
KENORA         PTCLDY    -4  -9  77 N3        30.25S
$$
                *** MANITOBA***

CITY           SKY/WX    TMP DP  RH WIND       PRES   REMARKS
BRANDON        CRYSTALS -15 -22  70 NE3       30.20F
DAUPHIN        CLEAR    -18 -24  76 W5        30.23F WCI -31
ISLAND LAKE    NOT AVBL
PILOT MOUND      N/A    -13 -18  77 E9          N/A  WCI -31
THE PAS        CLOUDY   -13 -18  77 CALM      30.21F
THOMPSON       CLOUDY    -8 -13  77 SW6       30.17F WCI -21
WINNIPEG       CLEAR     -9 -13  84 S3        30.32F
LYNN LAKE      CLEAR    -15 -18  84 SW7       30.06F WCI -31
CHURCHILL      CRYSTALS  -9 -15  77 SW9       30.08F WCI -27
GILLAM         FLURRIES  -2  -8  78 SW12G20   30.16F WCI -20
$$
                ***SASKATCHEWAN***

CITY           SKY/WX    TMP DP  RH WIND       PRES   REMARKS
ESTEVAN        FLURRIES -13 -17  84 E16       30.03S WCI -37
KINDERSLEY     FLURRIES   1  -2  85 E15       29.92F WCI -18
LLOYDMINSTER   FLURRIES  -4  -8  84 E8        29.98S WCI -19
PRINCE ALBERT  MOCLDY   -13 -18  77 E2        30.12F
REGINA         CLOUDY    -8 -17  65 E16       30.02F WCI -30
YORKTON        CLEAR    -15 -18  84 SE5       30.13S WCC1F1C2F2C3F3C4F4C5F5C6F6C7F7C8F8C9F9CaFaCbFbCcFcCdFdCe!



USA.gov is the U.S. government's official web portal to all federal, state and local government web resources and services.